Weather History for Delta, CO

Change the Weather History Date:

Thursday, October 11, 2012

  Actual Average (KMTJ) Record (KMTJ)
Temperature  
Mean Temperature 63 °F 52 °F  
Max Temperature 81 °F 67 °F 82 °F (1999)
Min Temperature 45 °F 37 °F 27 °F (2001)
Degree Days  
Heating Degree Days 2 13  
Month to date heating degree days 121  
Since 1 July heating degree days 248  
Cooling Degree Days 0 0  
Month to date cooling degree days 0  
Year to date cooling degree days 643  
Growing Degree Days 13 (Base 50)    
Moisture  
Dew Point 28 °F    
Average Humidity 31    
Maximum Humidity 51    
Minimum Humidity 12    
Precipitation  
Precipitation 0.00 in 0.04 in 0.03 in (2013)
Month to date precipitation 0.56  
Year to date precipitation 9.21  
Sea Level Pressure  
Sea Level Pressure 30.08 in    
Wind  
Wind Speed 5 mph ()    
Max Wind Speed 9 mph    
Max Gust Speed -    
Visibility 10.0 miles    
Events      
T = Trace of Precipitation, MM = Missing Value Source: Averaged Metar Reports

Daily Weather History Graph

Daily Weather History Graph

Search for Another Location

Airport:

Trip Planner

Search our weather history database for the weather conditions in past years. The results will help you decide how hot, cold, wet, or windy it might be!

Date:

Astronomy

Oct. 11, 2012 Rise Set
Actual Time 7:18 AM MDT 6:38 PM MDT
Civil Twilight 6:51 AM MDT 7:05 PM MDT
Nautical Twilight 6:20 AM MDT 7:36 PM MDT
Astronomical Twilight 5:49 AM MDT 8:07 PM MDT
Moon 3:02 AM MDT (10/11) 4:15 PM MDT (10/11)
Length of Visible Light 12h 14m
Length of Day
11h 20m
Waning Crescent, 18% of the Moon is Illuminated
Oct 11
Waning Crescent
Oct 15
New
Oct 21
First Quarter
Oct 29
Full
Nov 6
Last Quarter

Hourly Weather History & Observations

Time (MDT) Temp. Windchill Dew Point Humidity Pressure Visibility Wind Dir Wind Speed Gust Speed Precip Events Conditions
12:35 AM 53.4 °F - 31.8 °F 44% 30.07 in 10.0 mi NNE 6.9 mph - N/A   Unknown
12:55 AM 54.5 °F - 27.9 °F 36% 30.07 in 10.0 mi NE 4.6 mph - N/A   Unknown
1:15 AM 53.2 °F - 25.9 °F 35% 30.07 in 10.0 mi East 6.9 mph - N/A   Unknown
1:35 AM 52.0 °F - 28.4 °F 40% 30.07 in 10.0 mi East 9.2 mph - N/A   Unknown
1:55 AM 52.2 °F - 28.8 °F 41% 30.09 in 10.0 mi East 8.1 mph - N/A   Unknown
2:15 AM 49.6 °F - 28.8 °F 45% 30.09 in 10.0 mi NE 5.8 mph - N/A   Unknown
2:35 AM 50.5 °F - 29.7 °F 45% 30.10 in 10.0 mi NE 9.2 mph - N/A   Unknown
2:55 AM 51.1 °F - 28.6 °F 42% 30.09 in 10.0 mi NE 8.1 mph - N/A   Unknown
3:15 AM 50.9 °F - 27.9 °F 41% 30.09 in 10.0 mi ENE 6.9 mph - N/A   Unknown
3:35 AM 51.3 °F - 26.8 °F 39% 30.09 in 10.0 mi East 5.8 mph - N/A   Unknown
3:55 AM 49.1 °F - 25.7 °F 40% 30.09 in 10.0 mi ENE 4.6 mph - N/A   Unknown
4:15 AM 50.4 °F - 27.1 °F 41% 30.09 in 10.0 mi NE 9.2 mph - N/A   Unknown
4:35 AM 50.0 °F - 28.4 °F 43% 30.09 in 10.0 mi ENE 5.8 mph - N/A   Unknown
4:55 AM 49.1 °F - 28.0 °F 44% 30.10 in 10.0 mi NE 4.6 mph - N/A   Unknown
5:15 AM 47.8 °F - 28.0 °F 46% 30.10 in 10.0 mi ENE 4.6 mph - N/A   Unknown
5:35 AM 46.4 °F 44.3 °F 28.9 °F 51% 30.10 in 10.0 mi NNE 4.6 mph - N/A   Unknown
6:35 AM 45.0 °F 41.8 °F 26.6 °F 49% 30.11 in 10.0 mi NE 5.8 mph - N/A   Unknown
6:55 AM 46.4 °F 42.4 °F 27.1 °F 47% 30.12 in 10.0 mi NE 8.1 mph - N/A   Unknown
7:15 AM 47.7 °F - 28.2 °F 47% 30.12 in 10.0 mi ENE 6.9 mph - N/A   Unknown
7:35 AM 48.0 °F - 27.9 °F 46% 30.13 in 10.0 mi Calm Calm - N/A   Unknown
7:55 AM 48.2 °F - 28.6 °F 47% 30.13 in 10.0 mi NE 4.6 mph - N/A   Unknown
8:15 AM 48.7 °F - 30.0 °F 48% 30.13 in 10.0 mi NE 4.6 mph - N/A   Unknown
8:35 AM 49.1 °F - 29.3 °F 46% 30.13 in 10.0 mi NE 3.5 mph - N/A   Unknown
8:55 AM 52.2 °F - 28.4 °F 40% 30.14 in 10.0 mi Calm Calm - N/A   Unknown
9:15 AM 52.0 °F - 29.3 °F 42% 30.14 in 10.0 mi Calm Calm - N/A   Unknown
9:35 AM 55.9 °F - 28.4 °F 35% 30.15 in 10.0 mi Calm Calm - N/A   Unknown
9:55 AM 59.0 °F - 27.9 °F 31% 30.15 in 10.0 mi NE 3.5 mph - N/A   Unknown
10:15 AM 62.1 °F - 27.3 °F 27% 30.15 in 10.0 mi East 3.5 mph - N/A   Unknown
10:35 AM 62.8 °F - 29.1 °F 28% 30.14 in 10.0 mi Calm Calm - N/A   Unknown
10:55 AM 65.3 °F - 28.4 °F 25% 30.13 in 10.0 mi Calm Calm - N/A   Unknown
11:15 AM 66.0 °F - 27.5 °F 23% 30.13 in 10.0 mi Calm Calm - N/A   Unknown
11:35 AM 68.5 °F - 27.5 °F 22% 30.12 in 10.0 mi Calm Calm - N/A   Unknown
11:55 AM 70.2 °F - 28.0 °F 21% 30.11 in 10.0 mi East 4.6 mph - N/A   Unknown
12:15 PM 72.3 °F - 27.5 °F 19% 30.10 in 10.0 mi Calm Calm - N/A   Unknown
12:35 PM 74.3 °F - 26.8 °F 17% 30.09 in 10.0 mi Calm Calm - N/A   Unknown
12:55 PM 76.3 °F - 24.4 °F 15% 30.07 in 10.0 mi ENE 3.5 mph - N/A   Unknown
1:15 PM 77.7 °F - 25.0 °F 14% 30.06 in 10.0 mi North 4.6 mph - N/A   Unknown
1:35 PM 77.9 °F - 25.0 °F 14% 30.05 in 10.0 mi Calm Calm - N/A   Unknown
1:55 PM 79.3 °F - 24.8 °F 13% 30.04 in 10.0 mi West 3.5 mph - N/A   Unknown
2:15 PM 79.9 °F - 24.4 °F 13% 30.04 in 10.0 mi SSW 3.5 mph - N/A   Unknown
2:35 PM 79.5 °F - 24.3 °F 13% 30.02 in 10.0 mi Calm Calm - N/A   Unknown
2:55 PM 80.8 °F - 24.4 °F 13% 30.02 in 10.0 mi Calm Calm - N/A   Unknown
3:15 PM 81.5 °F - 24.6 °F 12% 30.02 in 10.0 mi WNW 5.8 mph - N/A   Unknown
3:35 PM 80.6 °F - 24.3 °F 13% 30.01 in 10.0 mi ESE 4.6 mph - N/A   Unknown
3:55 PM 80.4 °F - 24.3 °F 13% 30.01 in 10.0 mi WSW 4.6 mph - N/A   Unknown
4:35 PM 79.3 °F - 24.8 °F 13% 30.01 in 10.0 mi SSW 6.9 mph - N/A   Unknown
5:15 PM 79.7 °F - 24.6 °F 13% 30.01 in 10.0 mi West 4.6 mph - N/A   Unknown
5:35 PM 78.4 °F - 24.4 °F 14% 30.01 in 10.0 mi WNW 6.9 mph - N/A   Unknown
5:55 PM 77.9 °F - 24.6 °F 14% 30.01 in 10.0 mi West 8.1 mph - N/A   Unknown
6:15 PM 77.0 °F - 24.6 °F 14% 30.00 in 10.0 mi West 4.6 mph - N/A   Unknown
6:35 PM 75.2 °F - 25.3 °F 16% 30.01 in 10.0 mi West 3.5 mph - N/A   Unknown
7:15 PM 68.7 °F - 30.2 °F 24% 30.01 in 10.0 mi WSW 3.5 mph - N/A   Unknown
8:15 PM 63.3 °F - 30.0 °F 29% 30.02 in 10.0 mi East 4.6 mph - N/A   Unknown
8:55 PM 61.3 °F - 30.4 °F 31% 30.04 in 10.0 mi East 5.8 mph - N/A   Unknown
9:15 PM 61.3 °F - 29.5 °F 30% 30.05 in 10.0 mi East 3.5 mph - N/A   Unknown
9:35 PM 58.3 °F - 33.1 °F 39% 30.06 in 10.0 mi North 3.5 mph - N/A   Unknown
9:55 PM 59.0 °F - 32.0 °F 36% 30.09 in 10.0 mi ESE 3.5 mph - N/A   Unknown
10:15 PM 59.2 °F - 34.0 °F 39% 30.09 in 10.0 mi North 5.8 mph - N/A   Unknown
10:35 PM 59.2 °F - 31.1 °F 35% 30.09 in 10.0 mi North 9.2 mph - N/A   Unknown
11:15 PM 62.8 °F - 30.7 °F 30% 30.09 in 10.0 mi Calm Calm - N/A   Unknown
11:35 PM 66.9 °F - 32.2 °F 27% 30.09 in 10.0 mi ESE 4.6 mph - N/A   Unknown
11:55 PM 66.2 °F - 31.8 °F 28% 30.09 in 10.0 mi ESE 5.8 mph - N/A   Unknown